• In Deutschland
  • Länderverzeichnis
  • Für 7 Tage
  • Wassertemperatur
  • Satellitenkarten
  • Wetterkarte
  • Widgets
  • user-avatar
    Anmelden

    Stündliche Wetter Diapaga

    Heute, 21 Oktober, Sonntag

    Zeit Temperatur Niederschläge Wind Luftdruck Luftfeuchtigkeit
    00:00 +30°C° 0 mm 2 m/S 734 mmHg 25%
    01:00 +29°C° 0 mm 1 m/S 733 mmHg 26%
    02:00 +29°C° 0 mm 1 m/S 733 mmHg 28%
    03:00 +28°C° 0 mm 1 m/S 733 mmHg 29%
    04:00 +27°C° 0 mm 1 m/S 733 mmHg 31%
    05:00 +27°C° 0 mm 1 m/S 733 mmHg 33%
    06:00 +27°C° 0 mm 1 m/S 733 mmHg 47%
    07:00 +31°C° 0 mm 1 m/S 734 mmHg 39%
    08:00 +34°C° 0 mm 1 m/S 734 mmHg 31%
    09:00 +38°C° 0 mm 2 m/S 734 mmHg 23%
    10:00 +40°C° 0 mm 3 m/S 734 mmHg 18%
    11:00 +43°C° 0 mm 4 m/S 734 mmHg 13%
    12:00 +43°C° 0 mm 5 m/S 734 mmHg 12%
    13:00 +43°C° 0 mm 5 m/S 733 mmHg 11%
    14:00 +45°C° 0 mm 5 m/S 733 mmHg 10%
    15:00 +45°C° 0 mm 5 m/S 732 mmHg 10%
    16:00 +41°C° 0 mm 4 m/S 732 mmHg 11%
    17:00 +38°C° 0 mm 3 m/S 732 mmHg 13%
    18:00 +36°C° 0 mm 2 m/S 732 mmHg 14%
    19:00 +35°C° 0 mm 2 m/S 733 mmHg 15%
    20:00 +34°C° 0 mm 2 m/S 733 mmHg 16%
    21:00 +32°C° 0 mm 1 m/S 734 mmHg 17%
    22:00 +31°C° 0 mm 1 m/S 734 mmHg 17%
    23:00 +31°C° 0 mm 1 m/S 733 mmHg 18%

    Morgen, 22 Oktober, Montag

    Zeit Temperatur Niederschläge Wind Luftdruck Luftfeuchtigkeit
    00:00 +30°C° 0 mm 1 m/S 733 mmHg 18%
    01:00 +30°C° 0 mm 1 m/S 733 mmHg 19%
    02:00 +29°C° 0 mm 1 m/S 733 mmHg 20%
    03:00 +28°C° 0 mm 1 m/S 732 mmHg 21%
    04:00 +28°C° 0 mm 1 m/S 733 mmHg 23%
    05:00 +27°C° 0 mm 1 m/S 733 mmHg 24%
    06:00 +27°C° 0 mm 1 m/S 733 mmHg 26%
    07:00 +30°C° 0 mm 2 m/S 734 mmHg 26%
    08:00 +34°C° 0 mm 2 m/S 734 mmHg 26%
    09:00 +37°C° 0 mm 3 m/S 735 mmHg 25%
    10:00 +39°C° 0 mm 2 m/S 735 mmHg 21%
    11:00 +41°C° 0 mm 2 m/S 734 mmHg 17%
    12:00 +45°C° 0 mm 2 m/S 734 mmHg 12%
    13:00 +45°C° 0 mm 2 m/S 733 mmHg 11%
    14:00 +43°C° 0 mm 2 m/S 732 mmHg 11%
    15:00 +44°C° 0 mm 3 m/S 732 mmHg 10%
    16:00 +41°C° 0 mm 2 m/S 732 mmHg 11%
    17:00 +39°C° 0 mm 2 m/S 732 mmHg 13%
    18:00 +37°C° 0 mm 2 m/S 732 mmHg 14%
    19:00 +36°C° 0 mm 2 m/S 732 mmHg 14%
    20:00 +35°C° 0 mm 2 m/S 733 mmHg 14%
    21:00 +34°C° 0 mm 2 m/S 734 mmHg 15%
    22:00 +32°C° 0 mm 1 m/S 734 mmHg 16%
    23:00 +31°C° 0 mm 1 m/S 734 mmHg 17%

    übermorgen, 23 Oktober, Dienstag

    Zeit Temperatur Niederschläge Wind Luftdruck Luftfeuchtigkeit
    00:00 +31°C° 0 mm 1 m/S 734 mmHg 18%
    01:00 +30°C° 0 mm 1 m/S 733 mmHg 19%
    02:00 +30°C° 0 mm 1 m/S 733 mmHg 21%
    03:00 +29°C° 0 mm 1 m/S 733 mmHg 22%
    04:00 +28°C° 0 mm 1 m/S 733 mmHg 26%
    05:00 +28°C° 0 mm 2 m/S 734 mmHg 29%
    06:00 +27°C° 0 mm 2 m/S 734 mmHg 32%
    07:00 +30°C° 0 mm 2 m/S 735 mmHg 33%
    08:00 +34°C° 0 mm 3 m/S 735 mmHg 33%
    09:00 +37°C° 0 mm 3 m/S 736 mmHg 33%
    10:00 +39°C° 0 mm 3 m/S 735 mmHg 26%
    11:00 +42°C° 0 mm 2 m/S 734 mmHg 19%
    12:00 +45°C° 0 mm 2 m/S 734 mmHg 12%
    13:00 +45°C° 0 mm 2 m/S 733 mmHg 11%
    14:00 +45°C° 0 mm 3 m/S 732 mmHg 10%
    15:00 +45°C° 0 mm 4 m/S 732 mmHg 8%
    16:00 +43°C° 0 mm 3 m/S 732 mmHg 9%
    17:00 +40°C° 0 mm 3 m/S 732 mmHg 11%
    18:00 +37°C° 0 mm 2 m/S 732 mmHg 12%
    19:00 +36°C° 0 mm 2 m/S 733 mmHg 13%
    20:00 +35°C° 0 mm 2 m/S 733 mmHg 13%
    21:00 +34°C° 0 mm 2 m/S 734 mmHg 14%
    22:00 +34°C° 0 mm 2 m/S 734 mmHg 16%
    23:00 +32°C° 0 mm 1 m/S 733 mmHg 17%

    24 Oktober, Mittwoch

    Zeit Temperatur Niederschläge Wind Luftdruck Luftfeuchtigkeit
    00:00 +32°C° 0 mm 1 m/S 733 mmHg 18%
    01:00 +31°C° 0 mm 1 m/S 733 mmHg 19%
    02:00 +30°C° 0 mm 1 m/S 733 mmHg 21%
    03:00 +29°C° 0 mm 2 m/S 732 mmHg 23%
    04:00 +29°C° 0 mm 2 m/S 732 mmHg 27%
    05:00 +28°C° 0 mm 2 m/S 733 mmHg 31%
    06:00 +28°C° 0 mm 2 m/S 733 mmHg 35%
    07:00 +30°C° 0 mm 3 m/S 734 mmHg 36%
    08:00 +34°C° 0 mm 3 m/S 734 mmHg 37%
    09:00 +37°C° 0 mm 4 m/S 735 mmHg 38%
    10:00 +39°C° 0 mm 3 m/S 734 mmHg 31%
    11:00 +41°C° 0 mm 2 m/S 734 mmHg 23%
    12:00 +45°C° 0 mm 2 m/S 733 mmHg 16%
    13:00 +45°C° 0 mm 2 m/S 732 mmHg 14%
    14:00 +45°C° 0 mm 2 m/S 732 mmHg 13%
    15:00 +45°C° 0 mm 3 m/S 731 mmHg 11%
    16:00 +43°C° 0 mm 3 m/S 731 mmHg 12%
    17:00 +40°C° 0 mm 2 m/S 731 mmHg 14%
    18:00 +38°C° 0 mm 2 m/S 731 mmHg 15%
    19:00 +37°C° 0 mm 2 m/S 732 mmHg 17%
    20:00 +36°C° 0 mm 2 m/S 732 mmHg 19%
    21:00 +35°C° 0 mm 2 m/S 733 mmHg 20%
    22:00 +34°C° 0 mm 2 m/S 733 mmHg 24%
    23:00 +32°C° 0 mm 2 m/S 733 mmHg 28%

    25 Oktober, Donnerstag

    Zeit Temperatur Niederschläge Wind Luftdruck Luftfeuchtigkeit
    00:00 +33°C° 0 mm 3 m/S 733 mmHg 33%
    01:00 +31°C° 0 mm 3 m/S 733 mmHg 40%
    02:00 +31°C° 0 mm 3 m/S 732 mmHg 47%
    03:00 +32°C° 0 mm 4 m/S 732 mmHg 54%
    04:00 +30°C° 0 mm 4 m/S 732 mmHg 58%
    05:00 +30°C° 0 mm 4 m/S 733 mmHg 62%
    06:00 +29°C° 0 mm 4 m/S 733 mmHg 66%
    07:00 +32°C° 0 mm 4 m/S 734 mmHg 61%
    08:00 +33°C° 0 mm 4 m/S 734 mmHg 55%
    09:00 +35°C° 0 mm 5 m/S 734 mmHg 50%
    10:00 +37°C° 0 mm 4 m/S 734 mmHg 43%
    11:00 +40°C° 0 mm 4 m/S 733 mmHg 36%
    12:00 +42°C° 0 mm 3 m/S 732 mmHg 29%
    13:00 +42°C° 0 mm 2 m/S 732 mmHg 25%
    14:00 +43°C° 0 mm 2 m/S 731 mmHg 22%
    15:00 +43°C° 0 mm 1 m/S 731 mmHg 18%
    16:00 +42°C° 0 mm 1 m/S 731 mmHg 20%
    17:00 +40°C° 0 mm 1 m/S 731 mmHg 23%
    18:00 +37°C° 0 mm 1 m/S 732 mmHg 25%
    19:00 +37°C° 0 mm 1 m/S 732 mmHg 27%
    20:00 +36°C° 0 mm 1 m/S 733 mmHg 28%
    21:00 +35°C° 0 mm 1 m/S 733 mmHg 30%
    22:00 +35°C° 0 mm 1 m/S 733 mmHg 32%
    23:00 +35°C° 0 mm 2 m/S 733 mmHg 33%

    26 Oktober, Freitag

    Zeit Temperatur Niederschläge Wind Luftdruck Luftfeuchtigkeit
    00:00 +35°C° 0 mm 2 m/S 733 mmHg 34%
    01:00 +34°C° 0 mm 2 m/S 732 mmHg 37%
    02:00 +34°C° 0 mm 3 m/S 732 mmHg 40%
    03:00 +33°C° 0 mm 3 m/S 732 mmHg 43%
    04:00 +31°C° 0 mm 3 m/S 732 mmHg 47%
    05:00 +31°C° 0 mm 3 m/S 732 mmHg 52%
    06:00 +30°C° 0 mm 4 m/S 733 mmHg 56%
    07:00 +33°C° 0 mm 4 m/S 733 mmHg 51%
    08:00 +35°C° 0 mm 4 m/S 734 mmHg 47%
    09:00 +37°C° 0 mm 5 m/S 734 mmHg 43%
    10:00 +40°C° 0 mm 4 m/S 734 mmHg 37%
    11:00 +40°C° 0 mm 3 m/S 733 mmHg 31%
    12:00 +43°C° 0 mm 3 m/S 732 mmHg 26%
    13:00 +42°C° 0 mm 2 m/S 732 mmHg 25%
    14:00 +41°C° 0 mm 1 m/S 731 mmHg 25%
    15:00 +41°C° 0 mm 1 m/S 731 mmHg 25%
    16:00 +38°C° 1.1 mm 2 m/S 731 mmHg 32%
    17:00 +36°C° 1.1 mm 4 m/S 732 mmHg 40%
    18:00 +34°C° 1.1 mm 6 m/S 732 mmHg 48%
    19:00 +33°C° 1.4 mm 5 m/S 733 mmHg 48%
    20:00 +33°C° 1.4 mm 5 m/S 733 mmHg 49%
    21:00 +33°C° 1.4 mm 5 m/S 734 mmHg 50%
    22:00 +33°C° 0.2 mm 4 m/S 734 mmHg 50%
    23:00 +31°C° 0.2 mm 3 m/S 733 mmHg 49%
    Mehr zeigen